Location: ECC Obs
(38.4314°N, 90.9815°W)
Time: 01:39:44
(UTC-05:00)

Courier 1B - All Passes

Search period start: 10 April 2020 00:00
Search period end: 20 April 2020 00:00
Orbit: 962 x 1209 km, 28.3° (Epoch: 09 April)

Date Brightness Start Highest point End Pass type
(mag) Time Alt. Az. Time Alt. Az. Time Alt. Az.
10 Apr - 00:23:55 10° WSW 00:30:40 34° S 00:37:06 10° SE visible
10 Apr - 02:19:08 10° WSW 02:23:57 19° SSW 02:28:37 10° SSE night (unlit)
10 Apr - 19:43:54 10° SSW 19:49:40 23° SSE 19:55:25 10° ESE daylight
10 Apr - 21:36:11 10° SW 21:43:13 37° S 21:50:05 10° ESE visible
10 Apr - 23:29:55 10° WSW 23:36:54 37° S 23:43:38 10° ESE visible
11 Apr - 01:24:39 10° WSW 01:30:21 23° SSW 01:35:50 10° SSE night (unlit)
11 Apr - 18:51:02 10° SSW 18:55:58 18° SSE 19:00:57 10° ESE daylight
11 Apr - 20:42:33 10° SW 20:49:25 34° SSE 20:56:13 10° ESE visible
11 Apr - 22:35:59 10° WSW 22:43:07 39° S 22:50:03 10° ESE visible
12 Apr - 00:30:22 10° WSW 00:36:41 28° SSW 00:42:46 10° SE visible
12 Apr - 02:27:29 10° SW 02:29:49 12° SSW 02:32:08 10° SSW night (unlit)
12 Apr - 17:58:42 10° S 18:02:19 14° SSE 18:05:58 10° ESE daylight
12 Apr - 19:49:03 10° SW 19:55:38 30° SSE 20:02:13 10° ESE daylight
12 Apr - 21:42:08 10° WSW 21:49:18 40° S 21:56:21 10° ESE visible
12 Apr - 23:36:14 10° WSW 23:42:58 32° SSW 23:49:29 10° SE visible
13 Apr - 01:31:57 10° WSW 01:36:15 16° SSW 01:40:28 10° S night (unlit)
13 Apr - 18:55:46 10° SSW 19:01:53 26° SSE 19:08:05 10° ESE daylight
13 Apr - 20:48:22 10° WSW 20:55:29 39° S 21:02:34 10° ESE visible
13 Apr - 22:42:13 10° WSW 22:49:12 36° S 22:56:02 10° SE visible
14 Apr - 00:37:13 10° WSW 00:42:38 21° SSW 00:47:54 10° SSE visible
14 Apr - 18:02:43 10° SSW 18:08:10 21° SSE 18:13:45 10° ESE daylight
14 Apr - 19:54:43 10° SW 20:01:39 36° S 20:08:40 10° ESE visible
14 Apr - 21:48:16 10° WSW 21:55:24 39° S 22:02:26 10° ESE visible
14 Apr - 23:42:50 10° WSW 23:48:58 25° SSW 23:54:56 10° SSE visible
15 Apr - 17:10:04 10° S 17:14:32 17° SSE 17:19:05 10° ESE daylight
15 Apr - 19:01:12 10° SW 19:07:52 33° SSE 19:14:41 10° ESE daylight
15 Apr - 20:54:25 10° WSW 21:01:34 40° S 21:08:43 10° ESE visible
15 Apr - 22:48:38 10° WSW 22:55:14 30° SSW 23:01:42 10° SE visible
16 Apr - 00:45:04 10° SW 00:48:30 13° SSW 00:51:54 10° S night (unlit)
16 Apr - 16:18:10 10° S 16:20:55 12° SSE 16:23:43 10° SE daylight
16 Apr - 18:07:50 10° SW 18:14:07 29° SSE 18:20:35 10° ESE daylight
16 Apr - 20:00:40 10° WSW 20:07:45 40° S 20:14:56 10° ESE visible
16 Apr - 21:54:36 10° WSW 22:01:28 34° SSW 22:08:17 10° SE visible
16 Apr - 23:49:58 10° WSW 23:54:52 18° SSW 23:59:42 10° SSE visible
17 Apr - 17:14:42 10° SSW 17:20:25 24° SSE 17:26:20 10° ESE daylight
17 Apr - 19:07:01 10° WSW 19:13:56 38° S 19:21:01 10° ESE daylight
17 Apr - 21:00:40 10° WSW 21:07:40 37° S 21:14:41 10° SE visible
17 Apr - 22:55:26 10° WSW 23:01:11 22° SSW 23:06:53 10° SSE visible
18 Apr - 16:21:52 10° SSW 16:26:47 19° SSE 16:31:52 10° ESE daylight
18 Apr - 18:13:30 10° SW 18:20:09 35° S 18:27:02 10° ESE daylight
18 Apr - 20:06:50 10° WSW 20:13:50 39° S 20:20:59 10° ESE visible
18 Apr - 22:01:11 10° WSW 22:07:28 27° SSW 22:13:45 10° SE visible
18 Apr - 23:59:07 10° SW 00:00:43 11° SSW 00:02:19 10° SSW visible
19 Apr - 15:29:28 10° S 15:33:11 15° SSE 15:37:01 10° ESE daylight
19 Apr - 17:20:07 10° SW 17:26:25 31° SSE 17:32:59 10° ESE daylight
19 Apr - 19:13:06 10° WSW 19:20:01 39° S 19:27:10 10° ESE daylight
19 Apr - 21:07:07 10° WSW 21:13:42 31° SSW 21:20:22 10° SE visible
19 Apr - 23:03:03 10° WSW 23:07:05 15° SSW 23:11:05 10° S visible
